Moose Lake, MN

2:22 PM CDT on May 23, 2017 (GMT -0500)
Moose Lake-Carlton County

Weather History for KMZH - November, 2013

Change the Weather History Date:

Saturday, November 2, 2013

  Actual Average Record
Temperature  
Mean Temperature 36 °F -  
Max Temperature 44 °F 44 °F 68 °F (1978)
Min Temperature 28 °F 27 °F -11 °F (1951)
Degree Days  
Heating Degree Days 29    
Moisture  
Dew Point 29 °F    
Average Humidity 78    
Maximum Humidity 93    
Minimum Humidity 49    
Precipitation  
Precipitation 0.00 in - - ()
Sea Level Pressure  
Sea Level Pressure 29.97 in    
Wind  
Wind Speed 5 mph (NW)    
Max Wind Speed 9 mph    
Max Gust Speed 17 mph    
Visibility 10 miles    
Events      
Averages and records for this station are not official NWS values.
T = Trace of Precipitation, MM = Missing Value Source: NWS Daily Summary

Daily Weather History Graph

Daily Weather History Graph

Search for Another Location

Airport or City:

Trip Planner

Search our weather history database for the weather conditions in past years. The results will help you decide how hot, cold, wet, or windy it might be!

Date:

Astronomy

Nov. 02, 2013 Rise Set
Actual Time 7:54 AM CDT 5:54 PM CDT
Civil Twilight 7:22 AM CDT 6:25 PM CDT
Nautical Twilight 6:47 AM CDT 7:01 PM CDT
Astronomical Twilight 6:12 AM CDT 7:36 PM CDT
Moon 6:49 AM CDT (11/2) 5:27 PM CDT (11/2)
Length of Visible Light 11h 03m
Length of Day
9h 59m
Waning Crescent, 1% of the Moon is Illuminated
Nov 2
Waning Crescent
Nov 3
New
Nov 9
First Quarter
Nov 17
Full
Nov 25
Last Quarter

Hourly Weather History & Observations

Time (CDT) Temp. Windchill Dew Point Humidity Pressure Visibility Wind Dir Wind Speed Gust Speed Precip Events Conditions
12:06 AM 35.6 °F 30.7 °F 32.0 °F 87% 29.80 in 10.0 mi WNW 5.8 mph - N/A   Scattered Clouds
12:27 AM 35.6 °F 29.9 °F 32.0 °F 87% 29.80 in 10.0 mi NW 6.9 mph - N/A   Scattered Clouds
12:46 AM 35.6 °F 29.9 °F 32.0 °F 87% 29.81 in 10.0 mi NW 6.9 mph - N/A   Mostly Cloudy
1:07 AM 35.6 °F 28.6 °F 30.2 °F 81% 29.82 in 10.0 mi NW 9.2 mph 17.3 mph N/A   Overcast
1:27 AM 35.6 °F 28.6 °F 30.2 °F 81% 29.82 in 10.0 mi NW 9.2 mph - N/A   Overcast
1:47 AM 35.6 °F 29.2 °F 30.2 °F 81% 29.83 in 10.0 mi NNW 8.1 mph - N/A   Overcast
2:07 AM 35.6 °F 29.9 °F 30.2 °F 81% 29.84 in 10.0 mi NNW 6.9 mph - N/A   Overcast
2:26 AM 35.6 °F 29.2 °F 30.2 °F 81% 29.84 in 10.0 mi NNW 8.1 mph - N/A   Overcast
2:46 AM 35.6 °F 29.2 °F 30.2 °F 81% 29.85 in 10.0 mi NW 8.1 mph - N/A   Overcast
3:06 AM 35.6 °F 31.7 °F 30.2 °F 81% 29.86 in 10.0 mi NNW 4.6 mph - N/A   Overcast
3:27 AM 35.6 °F 29.9 °F 30.2 °F 81% 29.86 in 10.0 mi NNW 6.9 mph - N/A   Overcast
3:47 AM 35.6 °F 32.8 °F 30.2 °F 81% 29.86 in 10.0 mi NW 3.5 mph - N/A   Overcast
4:06 AM 35.6 °F 30.7 °F 28.4 °F 75% 29.87 in 10.0 mi NW 5.8 mph - N/A   Overcast
4:26 AM 35.6 °F 31.7 °F 28.4 °F 75% 29.88 in 10.0 mi NNW 4.6 mph - N/A   Overcast
4:46 AM 33.8 °F 27.7 °F 28.4 °F 81% 29.88 in 10.0 mi NNW 6.9 mph - N/A   Overcast
5:06 AM 33.8 °F 27.7 °F 30.2 °F 87% 29.89 in 10.0 mi NNW 6.9 mph - N/A   Overcast
5:26 AM 33.8 °F 28.6 °F 28.4 °F 81% 29.90 in 10.0 mi NNW 5.8 mph - N/A   Overcast
5:47 AM 33.8 °F 28.6 °F 30.2 °F 87% 29.91 in 10.0 mi NNW 5.8 mph - N/A   Overcast
6:06 AM 33.8 °F 30.8 °F 30.2 °F 87% 29.92 in 10.0 mi NNW 3.5 mph - N/A   Overcast
6:26 AM 33.8 °F - 30.2 °F 87% 29.92 in 10.0 mi Calm Calm - N/A   Overcast
6:46 AM 32.0 °F 28.7 °F 28.4 °F 87% 29.93 in 10.0 mi NW 3.5 mph - N/A   Scattered Clouds
7:06 AM 32.0 °F 27.5 °F 28.4 °F 87% 29.93 in 10.0 mi NW 4.6 mph - N/A   Clear
7:26 AM 32.0 °F 27.5 °F 28.4 °F 87% 29.94 in 10.0 mi NW 4.6 mph - N/A   Clear
7:46 AM 32.0 °F 28.7 °F 28.4 °F 87% 29.95 in 10.0 mi NW 3.5 mph - N/A   Clear
8:07 AM 32.0 °F 27.5 °F 28.4 °F 87% 29.96 in 10.0 mi NW 4.6 mph - N/A   Clear
8:26 AM 32.0 °F 28.7 °F 28.4 °F 87% 29.96 in 10.0 mi NW 3.5 mph - N/A   Clear
8:46 AM 32.0 °F 28.7 °F 30.2 °F 93% 29.97 in 10.0 mi NW 3.5 mph - N/A   Clear
9:06 AM 33.8 °F - 30.2 °F 87% 29.97 in 10.0 mi Calm Calm - N/A   Clear
9:26 AM 33.8 °F - 30.2 °F 87% 29.98 in 10.0 mi Calm Calm - N/A   Clear
9:46 AM 35.6 °F 30.7 °F 30.2 °F 81% 29.99 in 10.0 mi North 5.8 mph - N/A   Clear
10:07 AM 35.6 °F 30.7 °F 32.0 °F 87% 29.99 in 10.0 mi NNW 5.8 mph - N/A   Clear
10:26 AM 37.4 °F 33.8 °F 32.0 °F 81% 30.00 in 10.0 mi North 4.6 mph - N/A   Clear
10:47 AM 37.4 °F 34.9 °F 32.0 °F 81% 30.00 in 10.0 mi North 3.5 mph - N/A   Clear
11:06 AM 39.2 °F 35.9 °F 32.0 °F 75% 30.01 in 10.0 mi NNW 4.6 mph - N/A   Clear
11:26 AM 39.2 °F 33.6 °F 32.0 °F 75% 30.01 in 10.0 mi NW 8.1 mph - N/A   Clear
11:46 AM 41.0 °F 38.0 °F 30.2 °F 65% 30.01 in 10.0 mi NW 4.6 mph - N/A   Scattered Clouds
12:06 PM 39.2 °F 35.0 °F 30.2 °F 70% 30.02 in 10.0 mi WNW 5.8 mph - N/A   Mostly Cloudy
12:26 PM 41.0 °F 37.1 °F 30.2 °F 65% 30.01 in 10.0 mi WNW 5.8 mph - N/A   Mostly Cloudy
12:46 PM 41.0 °F 38.0 °F 28.4 °F 61% 30.02 in 10.0 mi West 4.6 mph - N/A   Scattered Clouds
1:06 PM 42.8 °F 38.6 °F 30.2 °F 61% 30.02 in 10.0 mi NW 6.9 mph - N/A   Mostly Cloudy
1:26 PM 42.8 °F 40.1 °F 28.4 °F 57% 30.01 in 10.0 mi West 4.6 mph - N/A   Mostly Cloudy
1:46 PM 42.8 °F - 30.2 °F 61% 30.01 in 10.0 mi Calm Calm - N/A   Mostly Cloudy
2:07 PM 44.6 °F 40.7 °F 30.2 °F 57% 30.01 in 10.0 mi NNW 6.9 mph - N/A   Scattered Clouds
2:26 PM 42.8 °F 41.1 °F 28.4 °F 57% 30.01 in 10.0 mi North 3.5 mph - N/A   Scattered Clouds
2:46 PM 44.6 °F 42.2 °F 28.4 °F 53% 30.01 in 10.0 mi NW 4.6 mph - N/A   Scattered Clouds
3:06 PM 42.8 °F - 28.4 °F 57% 30.01 in 10.0 mi Calm Calm - N/A   Clear
3:26 PM 44.6 °F - 28.4 °F 53% 30.01 in 10.0 mi Calm Calm - N/A   Clear
3:47 PM 44.6 °F - 28.4 °F 53% 30.01 in 10.0 mi Calm Calm - N/A   Scattered Clouds
4:06 PM 44.6 °F - 28.4 °F 53% 30.01 in 10.0 mi Calm Calm - N/A   Clear
4:26 PM 44.6 °F 42.2 °F 28.4 °F 53% 30.01 in 10.0 mi NW 4.6 mph - N/A   Clear
4:47 PM 44.6 °F - 28.4 °F 53% 30.02 in 10.0 mi Calm Calm - N/A   Clear
5:07 PM 44.6 °F - 26.6 °F 49% 30.02 in 10.0 mi Calm Calm - N/A   Clear
5:26 PM 42.8 °F - 26.6 °F 53% 30.03 in 10.0 mi Calm Calm - N/A   Clear
5:47 PM 41.0 °F - 26.6 °F 57% 30.03 in 10.0 mi Calm Calm - N/A   Clear
6:06 PM 35.6 °F - 26.6 °F 70% 30.03 in 10.0 mi Calm Calm - N/A   Clear
6:27 PM 35.6 °F - 28.4 °F 75% 30.03 in 10.0 mi Calm Calm - N/A   Clear
6:46 PM 33.8 °F - 28.4 °F 81% 30.04 in 10.0 mi Calm Calm - N/A   Clear
7:06 PM 32.0 °F - 28.4 °F 87% 30.04 in 10.0 mi Calm Calm - N/A   Clear
7:26 PM 32.0 °F - 28.4 °F 87% 30.04 in 10.0 mi Calm Calm - N/A   Clear
7:47 PM 30.2 °F - 28.4 °F 93% 30.05 in 10.0 mi Calm Calm - N/A   Clear
8:06 PM 30.2 °F - 28.4 °F 93% 30.04 in 10.0 mi Calm Calm - N/A   Clear
8:26 PM 30.2 °F - 28.4 °F 93% 30.04 in 10.0 mi Calm Calm - N/A   Clear
8:46 PM 30.2 °F - 28.4 °F 93% 30.04 in 10.0 mi Calm Calm - N/A   Clear
9:06 PM 30.2 °F - 26.6 °F 86% 30.04 in 10.0 mi Calm Calm - N/A   Clear
9:26 PM 28.4 °F - 26.6 °F 93% 30.04 in 10.0 mi Calm Calm - N/A   Clear
9:46 PM 28.4 °F - 26.6 °F 93% 30.05 in 10.0 mi Calm Calm - N/A   Clear
10:06 PM 28.4 °F - 26.6 °F 93% 30.06 in 10.0 mi Calm Calm - N/A   Scattered Clouds
10:26 PM 28.4 °F - 26.6 °F 93% 30.06 in 10.0 mi Calm Calm - N/A   Overcast
10:46 PM 30.2 °F - 28.4 °F 93% 30.07 in 10.0 mi Calm Calm - N/A   Overcast
11:06 PM 28.4 °F - 26.6 °F 93% 30.06 in 10.0 mi Calm Calm - N/A   Mostly Cloudy
11:26 PM 28.4 °F - 26.6 °F 93% 30.06 in 10.0 mi Calm Calm - N/A   Scattered Clouds
11:46 PM 28.4 °F - 26.6 °F 93% 30.06 in 10.0 mi Calm Calm - N/A   Clear